Year,Month,Day,Hour,Minute,Value (Times are PST for temperature in C)
2008,05,23,00,00,7.10
2008,05,23,00,01,7.10
2008,05,23,00,02,7.00
2008,05,23,00,03,7.10
2008,05,23,00,04,7.10
2008,05,23,00,05,7.10
2008,05,23,00,06,7.10
2008,05,23,00,07,7.10
2008,05,23,00,08,7.10
2008,05,23,00,09,7.10
2008,05,23,00,10,7.10
2008,05,23,00,11,7.00
2008,05,23,00,12,7.10
2008,05,23,01,02,6.70
2008,05,23,01,03,6.70
2008,05,23,01,04,6.70
2008,05,23,01,05,6.70
2008,05,23,01,06,6.70
2008,05,23,01,07,6.70
2008,05,23,01,08,6.70
2008,05,23,01,09,6.70
2008,05,23,01,10,6.60
2008,05,23,01,11,6.60
2008,05,23,01,12,6.60
2008,05,23,01,13,6.60
2008,05,23,01,14,6.60
2008,05,23,01,15,6.60
2008,05,23,01,16,6.60
2008,05,23,01,17,6.60
2008,05,23,01,18,6.60
2008,05,23,01,19,6.60
2008,05,23,01,20,6.50
2008,05,23,01,21,6.50
2008,05,23,01,22,6.50
2008,05,23,01,23,6.50
2008,05,23,01,24,6.50
2008,05,23,01,25,6.50
2008,05,23,01,26,6.50
2008,05,23,01,27,6.50
2008,05,23,01,28,6.50
2008,05,23,01,29,6.50
2008,05,23,01,30,6.50
2008,05,23,01,31,6.50
2008,05,23,01,32,6.50
2008,05,23,01,33,6.50
2008,05,23,01,34,6.50
2008,05,23,01,35,6.40
2008,05,23,01,36,6.40
2008,05,23,01,37,6.40
2008,05,23,01,38,6.40
2008,05,23,01,39,6.40
2008,05,23,01,40,6.40
2008,05,23,01,41,6.40
2008,05,23,01,42,6.40
2008,05,23,01,43,6.40
2008,05,23,01,44,6.40
2008,05,23,01,45,6.40
2008,05,23,01,46,6.40
2008,05,23,01,47,6.40
2008,05,23,01,48,6.40
2008,05,23,01,49,6.40
2008,05,23,01,50,6.40
2008,05,23,01,51,6.30
2008,05,23,01,52,6.30
2008,05,23,01,53,6.30
2008,05,23,01,54,6.30
2008,05,23,01,55,6.30
2008,05,23,01,56,6.30
2008,05,23,01,57,6.30
2008,05,23,01,58,6.30
2008,05,23,01,59,6.20
2008,05,23,02,00,6.20
2008,05,23,02,01,6.20
2008,05,23,02,02,6.20
2008,05,23,02,03,6.20
2008,05,23,02,04,6.20
2008,05,23,02,05,6.20
2008,05,23,02,06,6.20
2008,05,23,02,07,6.20
2008,05,23,02,08,6.20
2008,05,23,02,09,6.20
2008,05,23,02,10,6.20
2008,05,23,02,11,6.20
2008,05,23,02,12,6.20
2008,05,23,02,13,6.20
2008,05,23,02,14,6.20
2008,05,23,02,15,6.10
2008,05,23,02,16,6.20
2008,05,23,02,17,6.10
2008,05,23,02,18,6.10
2008,05,23,02,19,6.10
2008,05,23,02,20,6.10
2008,05,23,02,21,6.10
2008,05,23,02,22,6.10
2008,05,23,02,23,6.10
2008,05,23,02,24,6.10
2008,05,23,02,25,6.10
2008,05,23,02,26,6.10
2008,05,23,02,27,6.10
2008,05,23,02,28,6.10
2008,05,23,02,29,6.00
2008,05,23,02,30,6.00
2008,05,23,02,31,6.00
2008,05,23,02,32,6.00
2008,05,23,02,33,6.00
2008,05,23,02,34,6.00
2008,05,23,02,35,6.00
2008,05,23,02,36,6.00
2008,05,23,02,37,6.00
2008,05,23,02,38,6.00
2008,05,23,02,39,6.00
2008,05,23,02,40,5.90
2008,05,23,02,41,5.90
2008,05,23,02,42,5.90
2008,05,23,02,43,5.90
2008,05,23,02,44,5.90
2008,05,23,02,45,5.90
2008,05,23,02,46,5.90
2008,05,23,02,47,5.90
2008,05,23,02,48,5.90
2008,05,23,02,49,5.90
2008,05,23,02,50,5.80
2008,05,23,02,51,5.80
2008,05,23,02,52,5.80
2008,05,23,02,53,5.80
2008,05,23,02,54,5.80
2008,05,23,02,55,5.70
2008,05,23,02,56,5.70
2008,05,23,02,57,5.70
2008,05,23,02,58,5.70
2008,05,23,02,59,5.70
2008,05,23,03,00,5.70
2008,05,23,03,01,5.70
2008,05,23,03,02,5.70
2008,05,23,03,03,5.70
2008,05,23,03,04,5.60
2008,05,23,03,05,5.60
2008,05,23,03,06,5.60
2008,05,23,03,07,5.70
2008,05,23,03,08,5.70
2008,05,23,03,09,5.70
2008,05,23,03,10,5.70
2008,05,23,03,11,5.70
2008,05,23,03,12,5.70
2008,05,23,03,13,5.70
2008,05,23,03,14,5.70
2008,05,23,03,15,5.70
2008,05,23,03,16,5.70
2008,05,23,03,17,5.70
2008,05,23,03,18,5.60
2008,05,23,03,19,5.60
2008,05,23,03,20,5.60
2008,05,23,03,21,5.60
2008,05,23,03,22,5.60
2008,05,23,03,23,5.60
2008,05,23,03,24,5.60
2008,05,23,03,25,5.60
2008,05,23,03,26,5.60
2008,05,23,03,27,5.60
2008,05,23,03,28,5.60
2008,05,23,03,29,5.60
2008,05,23,03,30,5.60
2008,05,23,03,31,5.60
2008,05,23,03,32,5.60
2008,05,23,03,33,5.60
2008,05,23,03,34,5.60
2008,05,23,03,35,5.60
2008,05,23,03,36,5.60
2008,05,23,03,37,5.60
2008,05,23,03,38,5.60
2008,05,23,03,39,5.60
2008,05,23,03,40,5.60
2008,05,23,03,41,5.60
2008,05,23,03,42,5.60
2008,05,23,03,43,5.60
2008,05,23,03,44,5.60
2008,05,23,03,45,5.60
2008,05,23,03,46,5.60
2008,05,23,03,47,5.50
2008,05,23,03,48,5.50
2008,05,23,03,49,5.50
2008,05,23,03,50,5.50
2008,05,23,03,51,5.50
2008,05,23,03,52,5.50
2008,05,23,03,53,5.50
2008,05,23,03,54,5.50
2008,05,23,03,55,5.50
2008,05,23,03,56,5.40
2008,05,23,03,57,5.40
2008,05,23,03,58,5.40
2008,05,23,03,59,5.40
2008,05,23,04,00,5.40
2008,05,23,04,01,5.40
2008,05,23,04,02,5.40
2008,05,23,04,03,5.30
2008,05,23,04,04,5.30
2008,05,23,04,05,5.30
2008,05,23,04,06,5.30
2008,05,23,04,07,5.30
2008,05,23,04,08,5.30
2008,05,23,04,09,5.30
2008,05,23,04,10,5.30
2008,05,23,04,11,5.20
2008,05,23,04,12,5.20
2008,05,23,04,13,5.20
2008,05,23,04,14,5.20
2008,05,23,04,15,5.20
2008,05,23,04,16,5.20
2008,05,23,04,17,5.20
2008,05,23,04,18,5.20
2008,05,23,04,19,5.20
2008,05,23,04,20,5.20
2008,05,23,04,21,5.20
2008,05,23,04,22,5.20
2008,05,23,04,23,5.20
2008,05,23,04,24,5.20
2008,05,23,04,25,5.20
2008,05,23,04,26,5.20
2008,05,23,04,27,5.20
2008,05,23,04,28,5.20
2008,05,23,04,29,5.20
2008,05,23,04,30,5.20
2008,05,23,04,31,5.20
2008,05,23,04,32,5.20
2008,05,23,04,33,5.20
2008,05,23,04,34,5.20
2008,05,23,04,35,5.20
2008,05,23,04,36,5.20
2008,05,23,04,37,5.20
2008,05,23,04,38,5.20
2008,05,23,04,39,5.20
2008,05,23,04,40,5.20
2008,05,23,04,41,5.10
2008,05,23,04,42,5.10
2008,05,23,04,43,5.10
2008,05,23,04,44,5.10
2008,05,23,04,45,5.10
2008,05,23,04,46,5.10
2008,05,23,04,47,5.10
2008,05,23,04,48,5.10
2008,05,23,04,49,5.10
2008,05,23,04,50,5.10
2008,05,23,04,51,5.10
2008,05,23,04,52,5.10
2008,05,23,04,53,5.10
2008,05,23,04,54,5.10
2008,05,23,04,55,5.10
2008,05,23,04,56,5.10
2008,05,23,04,57,5.00
2008,05,23,04,58,5.10
2008,05,23,04,59,5.10
2008,05,23,05,00,5.00
2008,05,23,05,01,5.00
2008,05,23,05,02,5.00
2008,05,23,05,03,5.00
2008,05,23,05,04,5.00
2008,05,23,05,05,5.00
2008,05,23,05,06,5.00
2008,05,23,05,07,5.00
2008,05,23,05,08,4.90
2008,05,23,05,09,4.90
2008,05,23,05,10,4.90
2008,05,23,05,11,4.90
2008,05,23,05,12,4.90
2008,05,23,05,13,4.90
2008,05,23,05,14,4.90
2008,05,23,05,15,4.90
2008,05,23,05,16,4.90
2008,05,23,05,17,4.90
2008,05,23,05,18,4.90
2008,05,23,05,19,4.90
2008,05,23,05,20,4.90
2008,05,23,05,21,4.90
2008,05,23,05,22,4.90
2008,05,23,05,23,4.90
2008,05,23,05,24,4.90
2008,05,23,05,25,4.90
2008,05,23,05,26,4.90
2008,05,23,05,27,4.90
2008,05,23,05,28,4.90
2008,05,23,05,29,4.90
2008,05,23,05,30,4.80
2008,05,23,05,31,4.80
2008,05,23,05,32,4.80
2008,05,23,05,33,4.80
2008,05,23,05,34,4.80
2008,05,23,05,35,4.80
2008,05,23,05,36,4.80
2008,05,23,05,37,4.80
2008,05,23,05,38,4.80
2008,05,23,05,39,4.80
2008,05,23,05,40,4.70
2008,05,23,05,41,4.70
2008,05,23,05,42,4.70
2008,05,23,05,43,4.70
2008,05,23,05,44,4.70
2008,05,23,05,45,4.70
2008,05,23,05,46,4.60
2008,05,23,05,47,4.60
2008,05,23,05,48,4.60
2008,05,23,05,49,4.70
2008,05,23,05,50,4.70
2008,05,23,05,51,4.70
2008,05,23,05,52,4.60
2008,05,23,05,53,4.60
2008,05,23,05,54,4.60
2008,05,23,05,55,4.60
2008,05,23,05,56,4.70
2008,05,23,05,57,4.70
2008,05,23,05,58,4.70
2008,05,23,05,59,4.70
2008,05,23,06,00,4.70
2008,05,23,06,01,4.70
2008,05,23,06,02,4.70
2008,05,23,06,03,4.70
2008,05,23,06,04,4.80
2008,05,23,06,05,4.80
2008,05,23,06,06,4.80
2008,05,23,06,07,4.80
2008,05,23,06,08,4.80
2008,05,23,06,09,4.70
2008,05,23,06,10,4.70
2008,05,23,06,11,4.70
2008,05,23,06,12,4.70
2008,05,23,06,13,4.70
2008,05,23,06,14,4.70
2008,05,23,06,15,4.70
2008,05,23,06,16,4.80
2008,05,23,06,17,4.80
2008,05,23,06,18,4.80
2008,05,23,06,19,4.80
2008,05,23,06,20,4.90
2008,05,23,06,21,4.90
2008,05,23,06,22,4.90
2008,05,23,06,23,4.90
2008,05,23,06,24,4.90
2008,05,23,06,25,4.90
2008,05,23,06,26,4.90
2008,05,23,06,27,5.00
2008,05,23,06,28,5.00
2008,05,23,06,29,5.00
2008,05,23,06,30,5.00
2008,05,23,06,31,5.00
2008,05,23,06,32,5.00
2008,05,23,06,33,5.00
2008,05,23,06,34,5.10
2008,05,23,06,35,5.10
2008,05,23,06,36,5.10
2008,05,23,06,37,5.10
2008,05,23,06,38,5.10
2008,05,23,06,39,5.20
2008,05,23,06,40,5.20
2008,05,23,06,41,5.30
2008,05,23,06,42,5.30
2008,05,23,06,43,5.40
2008,05,23,06,44,5.50
2008,05,23,06,45,5.50
2008,05,23,06,46,5.60
2008,05,23,06,47,5.70
2008,05,23,06,48,5.80
2008,05,23,06,49,5.80
2008,05,23,06,50,5.80
2008,05,23,06,51,5.90
2008,05,23,06,52,5.90
2008,05,23,06,53,6.00
2008,05,23,06,54,6.00
2008,05,23,06,55,6.10
2008,05,23,06,56,6.10
2008,05,23,06,57,6.10
2008,05,23,06,58,6.10
2008,05,23,06,59,6.20
2008,05,23,07,00,6.20
2008,05,23,07,01,6.20
2008,05,23,07,02,6.20
2008,05,23,07,03,6.20
2008,05,23,07,04,6.20
2008,05,23,07,05,6.20
2008,05,23,07,06,6.20
2008,05,23,07,07,6.30
2008,05,23,07,08,6.30
2008,05,23,07,09,6.40
2008,05,23,07,10,6.50
2008,05,23,07,11,6.50
2008,05,23,07,12,6.60
2008,05,23,07,13,6.60
2008,05,23,07,14,6.70
2008,05,23,07,15,6.70
2008,05,23,07,16,6.70
2008,05,23,07,17,6.80
2008,05,23,07,18,6.80
2008,05,23,07,19,6.90
2008,05,23,07,20,7.00
2008,05,23,07,21,7.00
2008,05,23,07,22,7.00
2008,05,23,07,23,7.10
2008,05,23,07,24,7.10
2008,05,23,07,25,7.10
2008,05,23,07,26,7.20
2008,05,23,07,27,7.20
2008,05,23,07,28,7.30
2008,05,23,07,29,7.30
2008,05,23,07,30,7.40
2008,05,23,07,31,7.50
2008,05,23,07,32,7.50
2008,05,23,07,33,7.60
2008,05,23,07,34,7.70
2008,05,23,07,35,7.70
2008,05,23,07,36,7.70
2008,05,23,07,37,7.70
2008,05,23,07,38,7.80
2008,05,23,07,39,7.90
2008,05,23,07,40,8.00
2008,05,23,07,41,8.10
2008,05,23,07,42,8.20
2008,05,23,07,43,8.20
2008,05,23,07,44,8.30
2008,05,23,07,45,8.30
2008,05,23,07,46,8.30
2008,05,23,07,47,8.30
2008,05,23,07,48,8.30
2008,05,23,07,49,8.30
2008,05,23,07,50,8.20
2008,05,23,07,51,8.30
2008,05,23,07,52,8.30
2008,05,23,07,53,8.30
2008,05,23,07,54,8.30
2008,05,23,07,55,8.40
2008,05,23,07,56,8.40
2008,05,23,07,57,8.50
2008,05,23,07,58,8.60
2008,05,23,07,59,8.70
2008,05,23,08,00,8.70
2008,05,23,08,01,8.80
2008,05,23,08,02,8.90
2008,05,23,08,03,9.00
2008,05,23,08,04,9.10
2008,05,23,08,05,9.10
2008,05,23,08,06,9.20
2008,05,23,08,07,9.30
2008,05,23,08,08,9.40
2008,05,23,08,09,9.50
2008,05,23,08,10,9.60
2008,05,23,08,11,9.60
2008,05,23,08,12,9.70
2008,05,23,08,13,9.70
2008,05,23,08,14,9.80
2008,05,23,08,15,9.80
2008,05,23,08,16,9.80
2008,05,23,08,17,9.80
2008,05,23,08,18,9.90
2008,05,23,08,19,9.90
2008,05,23,08,20,9.90
2008,05,23,08,21,10.00
2008,05,23,08,22,10.00
2008,05,23,08,23,10.10
2008,05,23,08,24,10.10
2008,05,23,08,25,10.10
2008,05,23,08,26,10.20
2008,05,23,08,27,10.20
2008,05,23,08,28,10.30
2008,05,23,08,29,10.30
2008,05,23,08,30,10.30
2008,05,23,08,31,10.30
2008,05,23,08,32,10.40
2008,05,23,08,33,10.40
2008,05,23,08,34,10.40
2008,05,23,08,35,10.40
2008,05,23,08,36,10.40
2008,05,23,08,37,10.40
2008,05,23,08,38,10.40
2008,05,23,08,39,10.50
2008,05,23,08,40,10.60
2008,05,23,08,41,10.70
2008,05,23,08,42,10.80
2008,05,23,08,43,10.80
2008,05,23,08,44,10.90
2008,05,23,08,45,11.00
2008,05,23,08,46,11.10
2008,05,23,08,47,11.20
2008,05,23,08,48,11.30
2008,05,23,08,49,11.30
2008,05,23,08,50,11.30
2008,05,23,08,51,11.40
2008,05,23,08,52,11.40
2008,05,23,08,53,11.50
2008,05,23,08,54,11.70
2008,05,23,08,55,11.80
2008,05,23,08,56,11.90
2008,05,23,08,57,12.00
2008,05,23,08,58,12.10
2008,05,23,08,59,12.20
2008,05,23,09,00,12.30
2008,05,23,09,01,12.40
2008,05,23,09,02,12.40
2008,05,23,09,03,12.50
2008,05,23,09,04,12.60
2008,05,23,09,05,12.70
2008,05,23,09,06,12.80
2008,05,23,09,07,12.90
2008,05,23,09,08,13.00
2008,05,23,09,09,13.10
2008,05,23,09,10,13.20
2008,05,23,09,11,13.30
2008,05,23,09,12,13.30
2008,05,23,09,13,13.30
2008,05,23,09,14,13.20
2008,05,23,09,15,13.20
2008,05,23,09,16,13.20
2008,05,23,09,17,13.10
2008,05,23,09,18,13.00
2008,05,23,09,19,13.00
2008,05,23,09,20,12.90
2008,05,23,09,21,12.90
2008,05,23,09,22,12.90
2008,05,23,09,23,12.80
2008,05,23,09,24,12.70
2008,05,23,09,25,12.70
2008,05,23,09,26,12.60
2008,05,23,09,27,12.60
2008,05,23,09,28,12.60
2008,05,23,09,29,12.60
2008,05,23,09,30,12.60
2008,05,23,09,31,12.60
2008,05,23,09,32,12.60
2008,05,23,09,33,12.60
2008,05,23,09,34,12.60
2008,05,23,09,35,12.60
2008,05,23,09,36,12.50
2008,05,23,09,37,12.50
2008,05,23,09,38,12.50
2008,05,23,09,39,12.50
2008,05,23,09,40,12.50
2008,05,23,09,41,12.60
2008,05,23,09,42,12.60
2008,05,23,09,43,12.60
2008,05,23,09,44,12.60
2008,05,23,09,45,12.60
2008,05,23,09,46,12.60
2008,05,23,09,47,12.60
2008,05,23,09,48,12.70
2008,05,23,09,49,12.70
2008,05,23,09,50,12.80
2008,05,23,09,51,12.80
2008,05,23,09,52,12.90
2008,05,23,09,53,12.90
2008,05,23,09,54,12.90
2008,05,23,09,55,12.90
2008,05,23,09,56,12.90
2008,05,23,09,57,12.90
2008,05,23,09,58,12.80
2008,05,23,09,59,12.90
2008,05,23,10,00,12.90
2008,05,23,10,01,12.80
2008,05,23,10,02,12.90
2008,05,23,10,03,12.90
2008,05,23,10,04,13.00
2008,05,23,10,05,13.00
2008,05,23,10,06,13.10
2008,05,23,10,07,13.10
2008,05,23,10,08,13.20
2008,05,23,10,09,13.20
2008,05,23,10,10,13.30
2008,05,23,10,11,13.30
2008,05,23,10,12,13.30
2008,05,23,10,13,13.20
2008,05,23,10,14,13.20
2008,05,23,10,15,13.10
2008,05,23,10,16,13.00
2008,05,23,10,17,12.90
2008,05,23,10,18,12.80
2008,05,23,10,19,12.70
2008,05,23,10,20,12.60
2008,05,23,10,21,12.60
2008,05,23,10,22,12.60
2008,05,23,10,23,12.60
2008,05,23,10,24,12.70
2008,05,23,10,25,12.70
2008,05,23,10,26,12.80
2008,05,23,10,27,12.80
2008,05,23,10,28,12.90
2008,05,23,10,29,12.90
2008,05,23,10,30,12.90
2008,05,23,10,31,12.90
2008,05,23,10,32,12.90
2008,05,23,10,33,12.90
2008,05,23,10,34,13.00
2008,05,23,10,35,13.10
2008,05,23,10,36,13.20
2008,05,23,10,37,13.30
2008,05,23,10,38,13.40
2008,05,23,10,39,13.50
2008,05,23,10,40,13.60
2008,05,23,10,41,13.70
2008,05,23,10,42,13.80
2008,05,23,10,43,13.90
2008,05,23,10,44,14.10
2008,05,23,10,45,14.20
2008,05,23,10,46,14.30
2008,05,23,10,47,14.40
2008,05,23,10,48,14.50
2008,05,23,10,49,14.60
2008,05,23,10,50,14.70
2008,05,23,10,51,14.80
2008,05,23,10,52,14.80
2008,05,23,10,53,14.90
2008,05,23,10,54,15.00
2008,05,23,10,55,15.00
2008,05,23,10,56,15.00
2008,05,23,10,57,15.10
2008,05,23,10,58,15.20
2008,05,23,10,59,15.20
2008,05,23,11,00,15.20
2008,05,23,11,01,15.30
2008,05,23,11,02,15.30
2008,05,23,11,03,15.30
2008,05,23,11,04,15.20
2008,05,23,11,05,15.00
2008,05,23,11,06,15.00
2008,05,23,11,07,15.00
2008,05,23,11,08,14.90
2008,05,23,11,09,14.70
2008,05,23,11,10,14.60
2008,05,23,11,11,14.50
2008,05,23,11,12,14.30
2008,05,23,11,13,14.20
2008,05,23,11,14,14.10
2008,05,23,11,15,14.00
2008,05,23,11,16,13.90
2008,05,23,11,17,13.80
2008,05,23,11,18,13.80
2008,05,23,11,19,13.70
2008,05,23,11,20,13.70
2008,05,23,11,21,13.70
2008,05,23,11,22,13.60
2008,05,23,11,23,13.60
2008,05,23,11,24,13.50
2008,05,23,11,25,13.40
2008,05,23,11,26,13.30
2008,05,23,11,27,13.30
2008,05,23,11,28,13.20
2008,05,23,11,29,13.10
2008,05,23,11,30,13.00
2008,05,23,11,31,13.00
2008,05,23,11,32,13.00
2008,05,23,11,33,13.10
2008,05,23,11,34,13.10
2008,05,23,11,35,13.10
2008,05,23,11,36,13.20
2008,05,23,11,37,13.20
2008,05,23,11,38,13.20
2008,05,23,11,39,13.30
2008,05,23,11,40,13.30
2008,05,23,11,41,13.30
2008,05,23,11,42,13.40
2008,05,23,11,43,13.50
2008,05,23,11,44,13.60
2008,05,23,11,45,13.60
2008,05,23,11,46,13.60
2008,05,23,11,47,13.60
2008,05,23,11,48,13.60
2008,05,23,11,49,13.60
2008,05,23,11,50,13.60
2008,05,23,11,51,13.60
2008,05,23,11,52,13.60
2008,05,23,11,53,13.50
2008,05,23,11,54,13.50
2008,05,23,11,55,13.40
2008,05,23,11,56,13.40
2008,05,23,11,57,13.30
2008,05,23,11,58,13.30
2008,05,23,11,59,13.30
2008,05,23,12,00,13.30
2008,05,23,12,01,13.30
2008,05,23,12,02,13.30
2008,05,23,12,03,13.30
2008,05,23,12,04,13.40
2008,05,23,12,05,13.40
2008,05,23,12,06,13.40
2008,05,23,12,07,13.40
2008,05,23,12,08,13.50
2008,05,23,12,09,13.50
2008,05,23,12,10,13.60
2008,05,23,12,11,13.60
2008,05,23,12,12,13.70
2008,05,23,12,13,13.80
2008,05,23,12,14,13.90
2008,05,23,12,15,14.00
2008,05,23,12,16,14.20
2008,05,23,12,17,14.20
2008,05,23,12,18,14.30
2008,05,23,12,19,14.40
2008,05,23,12,20,14.40
2008,05,23,12,21,14.40
2008,05,23,12,22,14.30
2008,05,23,12,23,14.30
2008,05,23,12,24,14.30
2008,05,23,12,25,14.30
2008,05,23,12,26,14.20
2008,05,23,12,27,14.10
2008,05,23,12,28,14.00
2008,05,23,12,29,14.00
2008,05,23,12,30,13.90
2008,05,23,12,31,13.90
2008,05,23,12,32,13.90
2008,05,23,12,33,13.90
2008,05,23,12,34,14.00
2008,05,23,12,35,14.00
2008,05,23,12,36,14.10
2008,05,23,12,37,14.10
2008,05,23,12,38,14.20
2008,05,23,12,39,14.20
2008,05,23,12,40,14.20
2008,05,23,12,41,14.30
2008,05,23,12,42,14.30
2008,05,23,12,43,14.40
2008,05,23,12,44,14.40
2008,05,23,12,45,14.50
2008,05,23,12,46,14.60
2008,05,23,12,47,14.60
2008,05,23,12,48,14.70
2008,05,23,12,49,14.80
2008,05,23,12,50,14.90
2008,05,23,12,51,15.00
2008,05,23,12,52,15.00
2008,05,23,12,53,15.00
2008,05,23,12,54,15.00
2008,05,23,12,55,15.00
2008,05,23,12,56,15.00
2008,05,23,12,57,15.20
2008,05,23,12,58,15.40
2008,05,23,12,59,15.50
2008,05,23,13,00,15.60
2008,05,23,13,01,15.70
2008,05,23,13,02,15.70
2008,05,23,13,03,15.70
2008,05,23,13,04,15.60
2008,05,23,13,05,15.60
2008,05,23,13,06,15.50
2008,05,23,13,07,15.40
2008,05,23,13,08,15.30
2008,05,23,13,09,15.20
2008,05,23,13,10,15.00
2008,05,23,13,11,15.00
2008,05,23,13,12,14.80
2008,05,23,13,13,14.60
2008,05,23,13,14,14.50
2008,05,23,13,15,14.40
2008,05,23,13,16,14.30
2008,05,23,13,17,14.30
2008,05,23,13,18,14.20
2008,05,23,13,19,14.30
2008,05,23,13,20,14.30
2008,05,23,13,21,14.30
2008,05,23,13,22,14.30
2008,05,23,13,23,14.30
2008,05,23,13,24,14.30
2008,05,23,13,25,14.40
2008,05,23,13,26,14.40
2008,05,23,13,27,14.50
2008,05,23,13,28,14.50
2008,05,23,13,29,14.60
2008,05,23,13,30,14.60
2008,05,23,13,31,14.60
2008,05,23,13,32,14.60
2008,05,23,13,33,14.70
2008,05,23,13,34,14.70
2008,05,23,13,35,14.70
2008,05,23,13,36,14.80
2008,05,23,13,37,14.80
2008,05,23,13,38,14.90
2008,05,23,13,39,14.90
2008,05,23,13,40,14.90
2008,05,23,13,41,15.00
2008,05,23,13,42,15.00
2008,05,23,13,43,15.00
2008,05,23,13,44,15.00
2008,05,23,13,45,15.00
2008,05,23,13,46,15.10
2008,05,23,13,47,15.20
2008,05,23,13,48,15.30
2008,05,23,13,49,15.40
2008,05,23,13,50,15.50
2008,05,23,13,51,15.60
2008,05,23,13,52,15.70
2008,05,23,13,53,15.70
2008,05,23,13,54,15.80
2008,05,23,13,55,15.90
2008,05,23,13,56,16.00
2008,05,23,13,57,16.10
2008,05,23,13,58,16.30
2008,05,23,13,59,16.40
2008,05,23,14,00,16.60
2008,05,23,14,01,16.80
2008,05,23,14,02,16.90
2008,05,23,14,03,17.20
2008,05,23,14,04,17.40
2008,05,23,14,05,17.60
2008,05,23,14,06,17.70
2008,05,23,14,07,17.80
2008,05,23,14,08,17.80
2008,05,23,14,09,17.80
2008,05,23,14,10,17.80
2008,05,23,14,11,17.90
2008,05,23,14,12,17.90
2008,05,23,14,13,17.90
2008,05,23,14,14,18.00
2008,05,23,14,15,18.00
2008,05,23,14,16,18.00
2008,05,23,14,17,18.10
2008,05,23,14,18,18.10
2008,05,23,14,19,18.10
2008,05,23,14,20,18.20
2008,05,23,14,21,18.10
2008,05,23,14,22,18.10
2008,05,23,14,23,18.10
2008,05,23,14,24,18.10
2008,05,23,14,25,18.10
2008,05,23,14,26,18.10
2008,05,23,14,27,18.20
2008,05,23,14,28,18.20
2008,05,23,14,29,18.20
2008,05,23,14,30,18.10
2008,05,23,14,31,18.10
2008,05,23,14,32,18.00
2008,05,23,14,33,18.00
2008,05,23,14,34,18.00
2008,05,23,14,35,17.90
2008,05,23,14,36,17.90
2008,05,23,14,37,17.90
2008,05,23,14,38,17.90
2008,05,23,14,39,17.90
2008,05,23,14,40,17.90
2008,05,23,14,41,17.90
2008,05,23,14,42,17.90
2008,05,23,14,43,17.80
2008,05,23,14,44,17.90
2008,05,23,14,45,17.90
2008,05,23,14,46,17.90
2008,05,23,14,47,18.00
2008,05,23,14,48,17.90
2008,05,23,14,49,18.00
2008,05,23,14,50,18.00
2008,05,23,14,51,18.10
2008,05,23,14,52,18.10
2008,05,23,14,53,18.10
2008,05,23,14,54,18.20
2008,05,23,14,55,18.10
2008,05,23,14,56,18.10
2008,05,23,14,57,18.10
2008,05,23,14,58,18.10
2008,05,23,14,59,18.10
2008,05,23,15,00,18.10
2008,05,23,15,01,18.00
2008,05,23,15,02,18.00
2008,05,23,15,03,18.00
2008,05,23,15,04,17.90
2008,05,23,15,05,17.90
2008,05,23,15,06,17.90
2008,05,23,15,07,17.90
2008,05,23,15,08,17.80
2008,05,23,15,09,17.70
2008,05,23,15,10,17.70
2008,05,23,15,11,17.70
2008,05,23,15,12,17.70
2008,05,23,15,13,17.70
2008,05,23,15,14,17.70
2008,05,23,15,15,17.70
2008,05,23,15,16,17.70
2008,05,23,15,17,17.80
2008,05,23,15,18,17.80
2008,05,23,15,19,17.90
2008,05,23,15,20,17.90
2008,05,23,15,21,18.00
2008,05,23,15,22,18.00
2008,05,23,15,23,18.00
2008,05,23,15,24,18.10
2008,05,23,15,25,18.10
2008,05,23,15,26,18.20
2008,05,23,15,27,18.20
2008,05,23,15,28,18.20
2008,05,23,15,29,18.20
2008,05,23,15,30,18.20
2008,05,23,15,31,18.20
2008,05,23,15,32,18.20
2008,05,23,15,33,18.20
2008,05,23,15,34,18.20
2008,05,23,15,35,18.20
2008,05,23,15,36,18.20
2008,05,23,15,37,18.20
2008,05,23,15,38,18.20
2008,05,23,15,39,18.20
2008,05,23,15,40,18.20
2008,05,23,15,41,18.30
2008,05,23,15,42,18.30
2008,05,23,15,43,18.30
2008,05,23,15,44,18.40
2008,05,23,15,45,18.40
2008,05,23,15,46,18.50
2008,05,23,15,47,18.50
2008,05,23,15,48,18.60
2008,05,23,15,49,18.60
2008,05,23,15,50,18.60
2008,05,23,15,51,18.60
2008,05,23,15,52,18.50
2008,05,23,15,53,18.50
2008,05,23,15,54,18.50
2008,05,23,15,55,18.50
2008,05,23,15,56,18.60
2008,05,23,15,57,18.60
2008,05,23,15,58,18.70
2008,05,23,15,59,18.70
2008,05,23,16,00,18.70
2008,05,23,16,01,18.70
2008,05,23,16,02,18.70
2008,05,23,16,03,18.60
2008,05,23,16,04,18.60
2008,05,23,16,05,18.60
2008,05,23,16,06,18.60
2008,05,23,16,07,18.60
2008,05,23,16,08,18.60
2008,05,23,16,09,18.50
2008,05,23,16,10,18.60
2008,05,23,16,11,18.60
2008,05,23,16,12,18.60
2008,05,23,16,13,18.60
2008,05,23,16,14,18.60
2008,05,23,16,15,18.60
2008,05,23,16,16,18.50
2008,05,23,16,17,18.50
2008,05,23,16,18,18.50
2008,05,23,16,19,18.50
2008,05,23,16,20,18.50
2008,05,23,16,21,18.50
2008,05,23,16,22,18.40
2008,05,23,16,23,18.40
2008,05,23,16,24,18.40
2008,05,23,16,25,18.30
2008,05,23,16,26,18.30
2008,05,23,16,27,18.30
2008,05,23,16,28,18.30
2008,05,23,16,29,18.30
2008,05,23,16,30,18.30
2008,05,23,16,31,18.30
2008,05,23,16,32,18.20
2008,05,23,16,33,18.20
2008,05,23,16,34,18.20
2008,05,23,16,35,18.20
2008,05,23,16,36,18.20
2008,05,23,16,37,18.10
2008,05,23,16,38,18.10
2008,05,23,16,39,18.10
2008,05,23,16,40,18.00
2008,05,23,16,41,18.00
2008,05,23,16,42,17.90
2008,05,23,16,43,17.90
2008,05,23,16,44,17.90
2008,05,23,16,45,17.90
2008,05,23,16,46,18.00
2008,05,23,16,47,18.00
2008,05,23,16,48,18.00
2008,05,23,16,49,18.10
2008,05,23,16,50,18.10
2008,05,23,16,51,18.10
2008,05,23,16,52,18.10
2008,05,23,16,53,18.10
2008,05,23,16,54,18.10
2008,05,23,16,55,18.10
2008,05,23,16,56,18.10
2008,05,23,16,57,18.20
2008,05,23,16,58,18.20
2008,05,23,16,59,18.20
2008,05,23,17,00,18.20
2008,05,23,17,01,18.20
2008,05,23,17,02,18.30
2008,05,23,17,03,18.30
2008,05,23,17,04,18.30
2008,05,23,17,05,18.30
2008,05,23,17,06,18.30
2008,05,23,17,07,18.30
2008,05,23,17,08,18.40
2008,05,23,17,09,18.40
2008,05,23,17,10,18.30
2008,05,23,17,11,18.30
2008,05,23,17,12,18.20
2008,05,23,17,13,18.10
2008,05,23,17,14,18.00
2008,05,23,17,15,17.80
2008,05,23,17,16,17.70
2008,05,23,17,17,17.60
2008,05,23,17,18,17.60
2008,05,23,17,19,17.50
2008,05,23,17,20,17.40
2008,05,23,17,21,17.30
2008,05,23,17,22,17.20
2008,05,23,17,23,17.10
2008,05,23,17,24,17.10
2008,05,23,17,25,17.00
2008,05,23,17,26,16.90
2008,05,23,17,27,16.80
2008,05,23,17,28,16.80
2008,05,23,17,29,16.70
2008,05,23,17,30,16.70
2008,05,23,17,31,16.60
2008,05,23,17,32,16.50
2008,05,23,17,33,16.50
2008,05,23,17,34,16.40
2008,05,23,17,35,16.40
2008,05,23,17,36,16.40
2008,05,23,17,37,16.40
2008,05,23,17,38,16.40
2008,05,23,17,39,16.40
2008,05,23,17,40,16.40
2008,05,23,17,41,16.30
2008,05,23,17,42,16.20
2008,05,23,17,43,16.00
2008,05,23,17,44,15.90
2008,05,23,17,45,15.80
2008,05,23,17,46,15.70
2008,05,23,17,47,15.60
2008,05,23,17,48,15.60
2008,05,23,17,49,15.50
2008,05,23,17,50,15.40
2008,05,23,17,51,15.40
2008,05,23,17,52,15.40
2008,05,23,17,53,15.30
2008,05,23,17,54,15.30
2008,05,23,17,55,15.30
2008,05,23,17,56,15.30
2008,05,23,17,57,15.30
2008,05,23,17,58,15.30
2008,05,23,17,59,15.40
2008,05,23,18,00,15.40
2008,05,23,18,01,15.40
2008,05,23,18,02,15.30
2008,05,23,18,03,15.30
2008,05,23,18,04,15.30
2008,05,23,18,05,15.30
2008,05,23,18,06,15.20
2008,05,23,18,07,15.20
2008,05,23,18,08,15.20
2008,05,23,18,09,15.20
2008,05,23,18,10,15.10
2008,05,23,18,11,15.00
2008,05,23,18,12,15.00
2008,05,23,18,13,15.00
2008,05,23,18,14,14.90
2008,05,23,18,15,14.80
2008,05,23,18,16,14.70
2008,05,23,18,17,14.70
2008,05,23,18,18,14.60
2008,05,23,18,19,14.50
2008,05,23,18,20,14.40
2008,05,23,18,21,14.30
2008,05,23,18,22,14.30
2008,05,23,18,23,14.20
2008,05,23,18,24,14.20
2008,05,23,18,25,14.10
2008,05,23,18,26,14.10
2008,05,23,18,27,14.00
2008,05,23,18,28,14.00